Location: Howell Woods
(35.3600°N, 78.2900°W)
Time: 17:39:41
(UTC-05:00)

ISS - Pass Details

Date: 09 December 2021
Orbit: 413 x 422 km, 51.6° (Epoch: 28 January)

Event Time Altitude Azimuth Distance (km) Brightness Sun altitude
Rises 17:18:39 0° 314° (NW) 2,382 0.4 -4.1°
Reaches altitude 10° 17:20:46 10° 318° (NW) 1,512 -0.7 -4.5°
Maximum altitude 17:24:09 65° 40° (NE) 466 -3.7 -5.1°
Drops below altitude 10° 17:27:29 10° 124° (SE) 1,496 -1.3 -5.8°
Enters shadow 17:32:58 -10° 129° (SE) 3,741 0.8 -6.8°
